Location: Unspecified
(0.0000°N, 0.0000°E)
Time: 21:03:20
(UTC+00:00)

SRMSAT - Pass Details

Date: 22 July 2019
Orbit: 848 x 866 km, 20.0° (Epoch: 19 August)

Event Time Altitude Azimuth Distance (km) Brightness Sun altitude
Rises 19:11:43 0° 281° (WNW) 3,427 ? -15.3°
Reaches altitude 10° 19:14:58 10° 298° (WNW) 2,490 ? -16.0°
Maximum altitude 19:19:18 20° 344° (NNW) 1,859 ? -17.0°
Drops below altitude 10° 19:23:38 10° 31° (NNE) 2,486 ? -18.1°
Enters shadow 19:26:40 - 47° (NE) 3,357 ? -18.8°
